Temperature
25 24 24 24 25 25 25 25 24 25 25 25 24 24 24 24 23 23 23 23 22 22 21 21 20 19 19 19 18 18 17 17 17 16 16 16 15 15 15 15 15 15 15 14
25 24 25 25 25 25 25 24 24 25 25 25 24 24 24 24 23 23 23 22 22 22 21 20 20 19 19 18 18 18 17 17 17 16 16 16 15 15 15 15 15 14 14 14
24 25 25 25 25 24 24 24 24 24 25 25 24 23 23 24 24 23 23 22 22 22 21 20 20 19 19 18 18 18 17 17 17 16 16 15 15 15 15 15 14 14 14 14
25 25 25 25 24 24 24 25 24 24 23 23 24 22 23 23 23 23 22 22 22 22 21 20 20 19 18 18 18 17 17 17 16 16 16 16 15 15 15 14 14 14 14 14
24 25 24 24 24 24 24 25 24 24 23 23 23 23 23 23 22 22 22 22 22 22 21 20 20 19 18 18 17 17 17 16 16 16 16 15 15 15 15 14 14 14 14 14
25 25 25 25 25 25 24 24 24 24 23 21 23 23 22 23 23 23 23 22 22 21 21 20 19 19 18 18 17 17 17 16 16 16 15 15 15 15 14 14 14 14 14 13
24 24 25 25 24 24 24 22 21 21 21 22 24 23 22 23 24 23 23 22 22 21 21 20 19 18 18 17 17 17 16 16 16 16 15 15 15 15 14 14 14 14 13 13
23 23 24 24 24 23 23 23 21 21 21 22 24 23 23 24 23 23 22 22 21 21 20 20 19 18 17 17 17 16 16 16 16 16 15 15 15 15 14 14 14 14 13 13
23 23 25 25 25 24 23 23 23 22 22 22 23 23 23 23 23 22 22 22 21 20 20 19 19 18 17 17 16 16 16 16 15 15 15 15 15 14 14 14 14 14 13 13
23 22 24 24 24 24 23 23 22 22 21 21 22 22 21 21 22 22 22 21 21 20 19 19 18 18 17 17 16 16 16 15 15 15 15 15 15 14 14 14 14 13 13 13
23 22 22 23 23 23 23 22 22 22 22 21 21 21 23 22 22 22 21 21 20 20 19 18 18 17 17 16 16 16 15 15 15 15 15 15 14 14 14 14 14 13 13 13
23 22 22 23 23 24 23 22 22 20 20 21 20 20 23 22 22 21 21 21 20 19 19 18 18 17 17 16 16 16 15 15 15 15 15 14 14 14 14 14 13 13 13 13
21 21 21 21 22 22 22 22 22 21 21 20 20 20 22 21 21 21 20 20 19 19 18 18 17 17 16 16 16 15 15 15 15 15 14 14 14 14 14 14 13 13 13 13
19 20 20 20 21 21 21 21 22 21 20 20 20 20 20 20 20 20 20 19 19 18 18 17 17 16 16 16 15 15 15 15 15 14 14 14 14 14 13 13 13 13 13 12
20 20 21 21 21 21 21 21 21 21 20 20 20 20 20 20 20 20 19 19 18 18 17 16 16 16 16 15 15 15 15 15 14 14 14 14 14 13 13 13 13 13 12 12
20 20 20 20 21 21 20 21 21 21 21 20 20 19 20 20 20 19 19 18 17 17 16 16 16 15 15 15 15 15 15 14 14 14 14 13 13 13 13 13 13 12 12 12
19 19 19 19 20 20 19 20 20 20 20 20 19 19 19 19 19 18 18 17 17 16 16 15 15 15 15 15 14 15 15 14 14 14 13 13 13 13 12 12 12 12 12 12
19 18 18 18 19 18 19 20 20 19 19 19 18 18 18 18 18 17 17 16 16 16 15 15 14 14 14 14 14 14 14 14 13 13 13 13 12 12 12 12 12 12 11 11
19 18 17 17 17 18 19 19 19 19 18 18 17 17 17 17 17 16 16 15 15 15 15 14 14 14 14 14 14 14 14 14 13 13 13 12 12 12 12 11 11 11 11 11
19 18 17 17 17 17 17 18 19 18 16 17 17 16 16 16 15 15 15 14 14 14 14 14 13 14 13 13 14 14 14 13 13 13 13 12 12 12 11 11 11 11 11 11
17 17 17 16 16 16 17 18 18 16 15 16 16 15 15 15 14 14 13 13 13 13 13 13 13 13 13 13 13 13 13 13 13 12 12 12 12 11 11 11 11 10 10 10
17 16 16 16 16 15 17 17 16 16 15 15 15 14 14 14 14 13 12 12 12 12 12 12 12 12 12 12 12 12 12 12 12 12 12 11 11 11 10 10 10 10 10 10
17 17 16 16 15 16 16 16 15 15 15 14 14 14 13 13 13 12 12 12 12 11 11 11 11 11 12 12 12 12 12 12 11 11 11 11 11 10 10 10 10 9 9 9
17 17 16 16 15 15 15 15 15 14 14 14 13 13 13 12 12 12 11 11 11 11 11 11 10 11 11 11 11 11 11 11 11 11 10 10 10 10 9 9 9 9 9 9
15 16 15 15 15 15 14 14 14 13 13 13 13 13 12 12 11 11 11 11 11 10 10 10 10 10 10 10 10 10 10 10 10 10 10 9 9 9 9 9 9 8 8 8
15 14 14 14 14 14 13 13 13 13 12 12 12 12 12 11 11 11 11 10 10 10 10 10 10 10 10 10 10 10 10 10 9 9 9 9 9 9 9 8 8 8 8 7
Wind_Speed
7 7 7 6 7 8 7 7 6 3 4 6 7 7 7 9 8 7 7 7 9 10 10 9 9 8 7 6 7 7 7 6 5 3 3 3 2 2 2 2 4 4 4 4
7 8 7 6 6 7 8 9 7 4 4 5 7 8 6 8 10 9 8 7 7 7 8 9 9 8 7 6 6 7 7 6 5 3 3 3 3 2 2 2 3 3 4 4
7 4 4 6 7 9 9 8 7 6 6 7 8 7 6 6 7 7 7 7 8 8 9 10 9 8 7 7 6 6 6 6 5 4 3 3 3 2 2 1 1 2 3 4
7 6 6 7 8 9 8 5 7 8 8 6 7 5 5 6 7 8 7 7 7 7 7 9 10 8 8 7 6 6 6 6 6 5 4 4 3 2 2 2 2 1 3 3
5 4 6 7 7 7 6 6 8 9 9 9 9 7 4 6 6 8 8 8 7 8 8 9 9 9 7 7 6 5 6 5 5 5 5 4 3 2 2 3 3 2 2 2
8 6 6 6 5 6 6 9 10 9 7 9 9 7 3 3 5 6 8 8 8 7 8 9 8 8 7 6 6 5 6 5 5 5 5 5 4 4 3 3 3 2 2 1
9 9 7 6 6 6 6 6 4 5 6 6 4 4 1 3 4 3 4 6 7 7 8 9 9 8 7 7 6 6 6 6 5 5 5 5 5 5 4 4 3 3 2 1
7 7 6 5 6 4 6 7 5 4 4 4 5 4 3 4 5 4 3 4 5 5 6 8 9 8 8 8 7 6 6 6 6 6 5 4 4 4 3 3 3 3 2 2
5 3 3 3 4 5 6 7 6 7 9 7 3 2 3 4 5 3 3 4 4 5 5 6 7 8 8 8 7 7 6 6 6 6 5 4 4 4 4 3 3 3 2 3
7 7 4 4 4 6 6 6 5 5 6 5 4 3 2 2 4 3 3 4 4 5 5 6 6 6 7 7 7 7 6 6 5 5 4 3 3 4 4 3 4 3 3 2
7 7 5 5 6 7 5 6 6 5 6 5 4 1 1 3 3 3 4 4 5 5 4 4 5 5 6 7 7 7 6 5 5 5 5 4 4 4 4 3 3 3 3 3
5 5 9 7 4 4 4 6 6 5 6 6 5 2 3 5 5 4 3 3 4 5 5 4 4 4 5 6 7 7 6 6 5 5 5 5 5 4 4 4 4 3 2 2
7 5 7 4 3 4 5 6 6 6 6 6 6 2 1 3 4 3 2 3 3 4 4 4 4 3 3 4 5 6 6 6 5 5 5 5 5 5 4 4 4 3 2 1
4 7 8 9 7 5 6 6 6 6 6 7 7 5 2 2 3 2 2 2 2 2 3 3 3 3 2 3 4 5 5 5 5 5 5 5 5 5 4 4 4 4 3 2
4 8 10 10 9 9 10 9 8 8 8 8 8 6 4 3 2 2 2 2 3 3 3 3 2 1 1 2 3 4 4 5 6 6 6 5 5 5 5 4 4 4 4 3
5 7 9 10 9 9 10 10 10 9 8 8 7 6 4 4 4 2 2 3 4 4 3 3 2 1 1 1 3 3 4 5 5 6 6 5 5 4 4 4 4 3 3 3
6 7 9 9 8 8 8 7 7 6 5 5 6 5 4 4 3 3 3 3 3 4 3 2 2 1 1 2 3 3 4 5 5 5 5 5 5 5 5 5 4 4 3 3
8 8 6 7 8 8 3 3 3 3 4 4 4 4 4 4 3 4 5 4 3 3 2 2 2 2 2 1 2 2 3 4 5 5 5 4 5 4 4 4 4 4 3 3
7 7 5 6 7 6 4 4 4 4 3 5 5 5 6 5 3 4 7 6 5 4 3 2 2 2 2 2 1 2 3 3 4 4 4 4 5 4 4 4 3 3 3 3
6 7 7 6 7 6 2 5 5 4 1 5 6 5 5 5 3 3 6 6 5 5 4 4 3 2 2 2 2 1 1 2 3 3 4 4 4 4 4 4 3 2 2 3
3 5 6 7 7 4 4 5 4 3 2 5 6 5 5 4 4 4 5 5 5 5 4 4 3 2 2 2 1 1 1 1 2 2 3 4 4 4 3 3 2 2 2 3
4 3 4 5 6 4 4 3 3 3 4 5 6 6 5 5 4 5 5 5 5 5 4 4 3 3 3 2 1 1 1 0 2 3 3 3 3 3 3 3 3 3 3 3
3 3 2 2 2 1 3 4 4 4 3 4 4 5 4 4 4 4 4 4 4 4 4 4 4 3 3 3 1 1 1 0 2 3 3 3 3 3 3 3 4 3 3 3
4 4 5 4 2 2 3 4 5 5 4 5 4 3 3 3 3 4 4 4 4 3 4 3 3 3 3 2 2 1 1 0 1 2 3 3 3 3 3 2 3 3 3 3
6 5 6 7 4 4 3 4 5 5 5 5 5 4 4 4 4 4 4 4 4 3 3 3 3 3 3 2 2 2 1 1 2 2 2 2 2 3 2 2 1 2 2 2
7 7 7 6 4 5 5 5 7 7 6 7 7 6 4 4 5 5 5 4 4 3 3 3 4 4 3 2 1 1 1 1 1 2 2 2 2 2 2 2 1 1 2 3
Wind_Direction
209 228 237 239 238 261 277 277 275 260 200 217 241 248 214 188 190 202 204 200 188 182 169 160 156 152 151 148 146 141 141 138 128 127 122 124 119 100 78 68 62 53 49 66
221 229 239 254 260 266 270 273 271 269 240 241 248 250 235 199 198 201 204 196 189 174 160 155 157 157 158 156 157 153 151 144 137 136 134 133 128 121 103 90 72 63 52 49
232 237 239 244 251 255 259 270 280 282 278 259 265 250 235 212 202 190 202 204 192 183 172 165 163 159 161 162 169 161 150 142 139 139 126 119 101 101 106 102 81 65 65 60
238 234 244 249 254 260 264 274 280 281 276 265 253 263 224 203 188 192 198 206 194 180 174 166 161 162 166 162 164 160 152 152 153 149 142 144 150 158 155 143 133 117 84 77
248 230 251 254 260 269 278 289 275 272 273 272 254 259 227 183 189 194 195 196 192 177 174 168 162 160 159 159 159 161 155 153 149 153 152 160 157 151 138 131 136 134 119 108
248 239 253 263 266 259 276 274 262 255 261 263 247 240 233 195 179 177 183 185 186 182 173 162 152 149 157 154 159 162 153 151 151 154 159 168 158 156 144 145 148 153 152 149
231 220 221 234 254 240 249 270 260 235 225 241 225 228 209 121 123 137 158 167 174 173 164 158 153 156 161 160 161 167 161 160 160 165 172 177 173 171 169 166 166 162 158 153
253 226 204 209 238 268 253 254 261 275 269 271 232 218 126 109 108 110 124 142 146 149 155 157 159 162 164 164 165 169 172 172 173 177 184 182 172 168 170 164 147 155 166 160
290 253 183 199 232 250 261 258 273 284 283 278 253 164 122 96 100 113 144 143 146 146 147 155 156 163 168 167 169 177 177 181 182 181 179 179 171 154 151 155 144 154 162 162
292 292 236 214 215 225 253 283 279 266 281 278 262 255 212 152 144 144 131 131 139 145 152 158 160 163 166 163 167 172 178 183 182 176 171 169 161 152 153 148 146 156 160 146
286 278 263 228 228 236 232 248 260 272 267 278 284 322 66 117 92 93 106 116 129 137 145 155 158 163 163 162 167 175 175 175 176 176 170 167 161 156 151 150 151 155 155 161
304 279 270 257 246 251 248 258 264 270 281 284 285 283 66 91 84 66 73 95 118 128 134 142 153 165 166 170 171 172 175 177 179 175 171 172 166 162 160 158 151 157 177 179
333 289 278 251 211 216 241 248 263 276 279 276 274 253 105 79 81 76 69 89 108 123 139 147 148 156 165 170 171 170 177 178 173 168 170 174 168 169 174 166 163 174 185 186
307 275 274 276 290 299 278 267 257 256 259 269 272 277 304 24 35 42 60 87 99 111 122 128 138 156 172 175 177 173 177 173 169 168 174 184 179 174 177 171 169 173 179 191
279 275 277 279 284 290 289 282 264 257 260 263 275 288 304 335 347 10 27 66 89 91 92 92 100 131 173 181 186 182 179 175 173 174 181 189 181 175 173 171 168 173 180 180
276 283 288 280 277 275 277 281 275 274 276 265 269 278 311 333 339 3 36 60 74 73 73 80 93 104 175 201 202 197 189 179 175 178 184 180 178 177 172 169 167 173 169 167
281 282 285 281 281 282 268 279 271 270 284 287 282 295 325 332 353 17 47 75 78 65 54 55 48 42 242 226 221 219 198 178 175 180 183 181 179 179 181 175 166 170 176 170
271 277 277 278 279 264 288 346 323 315 339 348 340 347 354 1 34 63 54 56 50 61 61 45 11 349 325 289 234 224 195 179 178 183 182 178 172 174 173 170 176 177 172 170
239 254 265 270 273 265 281 321 328 320 330 12 1 6 15 10 22 65 42 42 35 28 40 27 7 347 337 331 270 221 210 180 176 180 177 171 161 162 164 171 178 170 166 167
233 234 246 261 270 272 319 348 339 307 297 24 14 11 16 9 0 10 17 23 27 17 20 10 356 353 355 342 324 245 215 178 186 180 164 153 155 165 172 171 165 156 157 169
252 246 239 252 262 272 331 339 328 286 9 24 21 20 15 11 3 357 6 6 13 9 11 6 358 354 345 342 335 288 277 212 170 131 133 142 157 166 160 156 154 154 160 163
265 267 263 263 262 272 3 351 359 14 35 27 15 11 1 1 18 12 9 7 6 354 351 352 342 340 339 331 288 232 263 241 122 124 129 141 155 161 148 148 154 158 161 169
266 276 284 263 255 11 30 35 27 25 26 13 1 352 2 354 357 358 355 352 349 343 339 338 335 334 342 350 356 302 287 15 135 138 144 152 155 151 152 156 164 166 169 179
289 305 290 282 270 312 347 18 12 7 357 348 342 340 335 324 330 336 334 332 328 325 322 324 322 318 324 337 352 329 309 226 166 165 160 159 162 157 156 161 165 173 183 187
297 300 290 284 276 297 321 346 345 340 338 333 327 318 311 306 306 310 306 306 308 304 310 307 300 294 299 327 350 343 344 292 206 187 174 174 158 149 145 144 165 180 181 170
276 282 279 284 305 303 307 325 329 324 324 320 315 307 302 294 293 297 296 296 295 291 290 287 289 294 293 299 311 346 323 283 231 205 186 171 162 162 160 152 118 92 161 141
Height
1482 1485 1487 1484 1483 1483 1483 1485 1487 1485 1481 1485 1488 1488 1487 1488 1491 1493 1495 1498 1500 1503 1506 1509 1512 1514 1516 1518 1520 1522 1523 1524 1525 1526 1527 1528 1529 1529 1529 1530 1530 1530 1530 1530
1482 1484 1481 1479 1480 1481 1483 1486 1486 1483 1480 1483 1485 1485 1482 1484 1487 1490 1492 1495 1498 1500 1504 1507 1509 1512 1514 1516 1518 1520 1522 1523 1524 1525 1526 1527 1528 1528 1529 1529 1529 1529 1529 1529
1482 1481 1478 1479 1481 1483 1483 1485 1485 1486 1481 1480 1484 1487 1482 1481 1483 1486 1489 1492 1495 1497 1500 1504 1506 1509 1512 1514 1516 1518 1520 1521 1522 1524 1525 1526 1527 1527 1528 1528 1528 1528 1528 1529
1477 1476 1477 1479 1480 1481 1485 1480 1481 1483 1488 1490 1485 1496 1484 1479 1481 1483 1487 1489 1492 1494 1497 1500 1503 1507 1509 1512 1514 1516 1518 1519 1521 1522 1523 1524 1525 1525 1526 1526 1527 1527 1527 1527
1476 1475 1477 1480 1479 1479 1481 1478 1480 1482 1486 1489 1483 1490 1485 1477 1481 1481 1483 1486 1489 1492 1495 1498 1500 1504 1507 1509 1512 1514 1516 1517 1519 1520 1521 1522 1523 1524 1525 1525 1526 1526 1526 1526
1474 1474 1475 1476 1476 1477 1478 1480 1479 1480 1486 1496 1482 1487 1488 1477 1476 1476 1479 1482 1485 1489 1492 1495 1498 1501 1504 1507 1509 1512 1514 1515 1516 1518 1519 1520 1521 1522 1523 1524 1524 1524 1525 1525
1475 1472 1472 1474 1477 1477 1479 1488 1496 1498 1499 1493 1475 1481 1482 1472 1471 1473 1476 1479 1482 1485 1489 1492 1495 1498 1501 1504 1506 1509 1511 1512 1514 1516 1517 1518 1520 1520 1521 1522 1522 1523 1523 1524
1478 1479 1471 1471 1476 1479 1478 1484 1498 1505 1499 1487 1474 1479 1477 1469 1470 1473 1476 1478 1481 1484 1487 1490 1493 1495 1498 1501 1503 1506 1508 1510 1512 1513 1515 1516 1517 1518 1519 1520 1521 1521 1522 1522
1478 1477 1468 1469 1471 1475 1480 1481 1478 1487 1486 1488 1479 1474 1473 1469 1471 1474 1475 1477 1480 1483 1486 1489 1491 1493 1496 1498 1500 1502 1505 1507 1509 1511 1512 1514 1515 1516 1517 1518 1519 1520 1520 1521
1475 1480 1471 1470 1472 1473 1476 1477 1482 1488 1495 1497 1485 1480 1481 1475 1473 1474 1474 1477 1479 1482 1485 1487 1489 1491 1494 1496 1498 1500 1502 1504 1507 1508 1510 1511 1513 1514 1515 1516 1517 1518 1518 1519
1475 1480 1476 1473 1474 1475 1477 1479 1480 1482 1483 1493 1495 1491 1469 1471 1471 1473 1474 1477 1479 1481 1484 1486 1488 1490 1492 1493 1495 1497 1499 1502 1504 1505 1507 1509 1510 1511 1513 1514 1515 1516 1516 1517
1475 1478 1480 1473 1467 1467 1471 1475 1479 1491 1489 1484 1490 1491 1469 1470 1472 1474 1475 1477 1478 1480 1482 1484 1486 1488 1490 1491 1493 1495 1497 1499 1501 1503 1505 1506 1508 1509 1511 1511 1512 1513 1514 1515
1481 1482 1485 1482 1478 1473 1473 1472 1475 1479 1484 1487 1492 1490 1471 1471 1472 1474 1476 1477 1478 1480 1482 1483 1485 1486 1488 1489 1491 1492 1494 1496 1498 1500 1502 1504 1505 1507 1508 1509 1510 1510 1511 1512
1484 1483 1485 1490 1482 1475 1475 1474 1474 1479 1487 1487 1485 1482 1476 1475 1475 1476 1476 1477 1478 1479 1481 1482 1483 1485 1486 1488 1489 1490 1492 1494 1495 1497 1499 1501 1502 1504 1505 1506 1507 1508 1509 1509
1483 1483 1478 1475 1472 1473 1474 1473 1473 1475 1476 1481 1480 1479 1477 1475 1476 1476 1476 1477 1478 1479 1480 1481 1482 1484 1485 1486 1487 1489 1490 1491 1493 1494 1496 1498 1500 1501 1502 1504 1505 1505 1506 1507
1481 1482 1478 1477 1472 1472 1474 1472 1471 1472 1472 1474 1476 1477 1475 1475 1475 1475 1476 1477 1478 1479 1480 1481 1482 1483 1484 1485 1486 1487 1488 1489 1490 1491 1493 1495 1497 1498 1499 1501 1502 1503 1503 1504
1481 1482 1484 1481 1474 1473 1479 1473 1471 1471 1471 1473 1476 1477 1474 1475 1475 1476 1477 1477 1478 1479 1480 1481 1482 1482 1483 1484 1484 1485 1485 1486 1488 1489 1490 1492 1493 1495 1496 1498 1498 1499 1500 1501
1481 1482 1482 1482 1480 1487 1477 1468 1468 1469 1471 1472 1473 1474 1474 1476 1476 1477 1478 1478 1479 1479 1480 1480 1481 1481 1482 1482 1483 1483 1484 1484 1485 1487 1488 1489 1490 1492 1493 1494 1495 1497 1498 1498
1478 1481 1484 1484 1484 1480 1474 1470 1469 1471 1474 1474 1474 1475 1476 1475 1475 1477 1479 1479 1479 1479 1479 1479 1480 1480 1480 1481 1480 1481 1481 1482 1483 1484 1485 1486 1487 1488 1490 1491 1492 1493 1494 1495
1475 1477 1482 1483 1486 1486 1479 1472 1470 1472 1478 1477 1475 1476 1477 1476 1479 1480 1480 1480 1479 1479 1479 1479 1479 1479 1479 1479 1478 1478 1479 1479 1480 1481 1482 1483 1485 1485 1487 1488 1489 1490 1491 1492
1478 1478 1481 1483 1484 1481 1475 1472 1472 1481 1483 1479 1478 1478 1479 1479 1481 1481 1480 1479 1479 1479 1478 1478 1477 1477 1477 1477 1477 1476 1476 1477 1477 1478 1479 1480 1482 1482 1483 1484 1485 1487 1488 1489
1478 1480 1480 1480 1484 1486 1475 1474 1478 1480 1478 1479 1479 1479 1480 1480 1480 1480 1479 1479 1478 1477 1477 1476 1476 1475 1475 1475 1475 1474 1474 1475 1475 1476 1476 1477 1478 1480 1480 1481 1482 1483 1484 1485
1474 1476 1477 1479 1482 1478 1476 1477 1478 1478 1478 1479 1480 1479 1479 1479 1479 1479 1478 1478 1477 1477 1476 1475 1474 1473 1473 1473 1472 1472 1473 1473 1473 1473 1473 1474 1475 1476 1477 1478 1479 1480 1481 1481
1473 1473 1474 1475 1476 1476 1477 1477 1478 1478 1479 1479 1479 1479 1478 1478 1477 1477 1477 1477 1476 1475 1474 1473 1473 1472 1471 1471 1470 1470 1470 1470 1470 1470 1471 1472 1472 1473 1474 1475 1476 1477 1477 1478
1476 1475 1474 1474 1475 1476 1476 1477 1477 1478 1478 1477 1477 1477 1477 1476 1476 1475 1475 1475 1474 1473 1472 1472 1471 1470 1469 1469 1468 1468 1468 1468 1468 1468 1469 1469 1470 1470 1471 1472 1473 1474 1474 1475
1476 1476 1476 1475 1476 1476 1477 1477 1477 1476 1476 1476 1475 1474 1474 1474 1473 1473 1472 1472 1471 1470 1470 1469 1468 1468 1467 1466 1466 1465 1465 1465 1465 1465 1466 1466 1467 1468 1468 1469 1470 1470 1471 1472